FW5816 Weather Reports


Display with metric or nautical units.
time (UTC)temp
F
wind
direction
speed
MPH
gust
MPH
rain 1hr
in
rain 24hr
in
rain mn
in
humidity
%
barometer
mb
20260904213522 97 290 1.0 7.0 0.00 0.00 0.00 52 1014.0
20260904213038 97 277 3.0 7.0 0.00 0.00 0.00 50 1014.0
20260904212522 98 266 2.0 6.0 0.00 0.00 0.00 52 1013.9
20260904212018 97 283 2.0 6.0 0.00 0.00 0.00 51 1013.9
20260904211549 97 260 4.0 7.0 0.00 0.00 0.00 51 1013.8
20260904211020 97 240 4.0 7.0 0.00 0.00 0.00 52 1013.9
20260904210520 98 358 1.0 7.0 0.00 0.00 0.00 51 1014.0
20260904210038 98 280 2.0 7.0 0.00 0.00 0.00 52 1014.0
20260904205519 97 0 1.0 6.0 0.00 0.00 0.00 52 1014.0
20260904205022 96 0 2.0 6.0 0.00 0.00 0.00 53 1014.0
20260904204545 97 6 3.0 6.0 0.00 0.00 0.00 52 1014.1
20260904204019 97 19 2.0 5.0 0.00 0.00 0.00 52 1014.1
20260904203524 97 204 2.0 5.0 0.00 0.00 0.00 52 1014.0
20260904203043 97 272 0.0 7.0 0.00 0.00 0.00 54 1014.1
20260904202516 97 346 3.0 7.0 0.00 0.00 0.00 53 1014.3
20260904202017 97 0 2.0 6.0 0.00 0.00 0.00 52 1014.3
20260904201536 96 328 2.0 7.0 0.00 0.00 0.00 54 1014.3
20260904201025 96 301 2.0 7.0 0.00 0.00 0.00 55 1014.4
20260904200520 96 278 1.0 8.0 0.00 0.00 0.00 53 1014.4
20260904200040 96 319 5.0 8.0 0.00 0.00 0.00 53 1014.5
20260904195520 97 336 1.0 6.0 0.00 0.00 0.00 54 1014.6
20260904195019 96 47 3.0 10.0 0.00 0.00 0.00 53 1014.7
20260904194549 96 349 5.0 10.0 0.00 0.00 0.00 53 1014.8
20260904194017 96 283 3.0 7.0 0.00 0.00 0.00 54 1014.9
20260904193522 96 348 3.0 7.0 0.00 0.00 0.00 54 1014.9
20260904193041 97 359 2.0 5.0 0.00 0.00 0.00 54 1015.1
20260904192520 96 56 1.0 6.0 0.00 0.00 0.00 54 1015.0
20260904192025 96 53 4.0 8.0 0.00 0.00 0.00 56 1015.2
20260904191542 96 331 2.0 8.0 0.00 0.00 0.00 54 1015.3
20260904191021 96 37 3.0 7.0 0.00 0.00 0.00 57 1015.3
20260904190520 95 32 3.0 7.0 0.00 0.00 0.00 57 1015.4
20260904190037 95 46 4.0 8.0 0.00 0.00 0.00 56 1015.5
20260904185517 96 28 3.0 10.0 0.00 0.00 0.00 55 1015.5
20260904185020 96 46 5.0 10.0 0.00 0.00 0.00 52 1015.4
20260904184541 97 4 4.0 7.0 0.00 0.00 0.00 53 1015.5
20260904184018 97 311 2.0 8.0 0.00 0.00 0.00 52 1015.5
20260904183518 96 176 2.0 8.0 0.00 0.00 0.00 50 1015.7
20260904183039 96 300 3.0 8.0 0.00 0.00 0.00 51 1015.7
20260904182520 96 187 2.0 6.0 0.00 0.00 0.00 54 1015.7
20260904182023 96 340 2.0 7.0 0.00 0.00 0.00 54 1015.8
20260904181549 96 12 2.0 7.0 0.00 0.00 0.00 53 1015.8
20260904181017 96 48 1.0 9.0 0.00 0.00 0.00 54 1015.9
20260904180516 95 43 3.0 10.0 0.00 0.00 0.00 56 1016.0
20260904180038 95 339 5.0 10.0 0.00 0.00 0.00 55 1016.0
20260904175520 95 340 2.0 8.0 0.00 0.00 0.00 56 1016.1
20260904175019 95 306 4.0 8.0 0.00 0.00 0.00 56 1016.2
20260904174558 95 278 3.0 10.0 0.00 0.00 0.00 55 1016.3
20260904174019 95 354 5.0 10.0 0.00 0.00 0.00 55 1016.3
20260904173519 95 356 2.0 11.0 0.00 0.00 0.00 56 1016.4
20260904173037 95 358 2.0 11.0 0.00 0.00 0.00 56 1016.3
20260904172521 95 13 3.0 7.0 0.00 0.00 0.00 56 1016.4
20260904172020 95 23 1.0 11.0 0.00 0.00 0.00 56 1016.4
20260904171536 95 287 4.0 11.0 0.00 0.00 0.00 55 1016.4
20260904171019 95 314 2.0 6.0 0.00 0.00 0.00 57 1016.3
20260904170520 94 341 2.0 10.0 0.00 0.00 0.00 58 1016.5
20260904170035 94 35 4.0 10.0 0.00 0.00 0.00 57 1016.5
20260904165519 93 296 3.0 8.0 0.00 0.00 0.00 59 1016.6
20260904165018 93 345 4.0 8.0 0.00 0.00 0.00 59 1016.6
20260904164537 93 277 3.0 7.0 0.00 0.00 0.00 58 1016.6
20260904164017 93 331 3.0 7.0 0.00 0.00 0.00 58 1016.7
20260904163517 94 11 1.0 7.0 0.00 0.00 0.00 62 1016.7
20260904163048 93 281 3.0 7.0 0.00 0.00 0.00 61 1016.7
20260904162520 93 39 1.0 7.0 0.00 0.00 0.00 62 1016.8
20260904162020 92 1 2.0 9.0 0.00 0.00 0.00 63 1016.8
20260904161537 92 259 2.0 9.0 0.00 0.00 0.00 62 1016.8
20260904161019 92 356 3.0 9.0 0.00 0.00 0.00 63 1016.9
20260904160518 92 34 4.0 9.0 0.00 0.00 0.00 63 1016.7
20260904160034 92 330 3.0 8.0 0.00 0.00 0.00 63 1016.8
20260904155515 92 290 2.0 6.0 0.00 0.00 0.00 64 1016.8
20260904155017 91 299 3.0 8.0 0.00 0.00 0.00 65 1016.8
20260904154541 91 25 2.0 8.0 0.00 0.00 0.00 65 1016.7
20260904154018 91 328 3.0 7.0 0.00 0.00 0.00 64 1016.7
20260904153518 91 38 4.0 8.0 0.00 0.00 0.00 64 1016.8
20260904153045 91 351 1.0 8.0 0.00 0.00 0.00 66 1016.8
20260904152519 91 342 3.0 8.0 0.00 0.00 0.00 66 1016.7
20260904152019 90 339 2.0 5.0 0.00 0.00 0.00 66 1016.7
20260904151537 91 355 2.0 4.0 0.00 0.00 0.00 65 1016.6
20260904151018 90 285 2.0 4.0 0.00 0.00 0.00 66 1016.6
20260904150518 90 353 2.0 5.0 0.00 0.00 0.00 66 1016.6
20260904150037 90 317 1.0 5.0 0.00 0.00 0.00 66 1016.6
20260904145516 90 282 2.0 4.0 0.00 0.00 0.00 67 1016.7
20260904145020 89 286 1.0 4.0 0.00 0.00 0.00 66 1016.7
20260904144538 90 1 1.0 3.0 0.00 0.00 0.00 66 1016.7
20260904144020 90 278 1.0 6.0 0.00 0.00 0.00 69 1016.7
20260904143520 89 282 2.0 6.0 0.00 0.00 0.00 69 1016.7
20260904143039 89 283 1.0 4.0 0.00 0.00 0.00 69 1016.7
20260904142520 89 269 1.0 4.0 0.00 0.00 0.00 70 1016.7
20260904142022 88 0 0.0 3.0 0.00 0.00 0.00 72 1016.7
20260904141538 88 278 1.0 3.0 0.00 0.00 0.00 72 1016.7
20260904141030 88 205 1.0 3.0 0.00 0.00 0.00 72 1016.7
20260904140519 87 0 0.0 2.0 0.00 0.00 0.00 72 1016.7
20260904140043 87 278 1.0 3.0 0.00 0.00 0.00 74 1016.7
20260904135521 87 273 1.0 3.0 0.00 0.00 0.00 74 1016.6
20260904135020 87 283 1.0 2.0 0.00 0.00 0.00 74 1016.5
20260904134546 86 283 1.0 2.0 0.00 0.00 0.00 75 1016.5
20260904134017 86 281 1.0 2.0 0.00 0.00 0.00 76 1016.5
20260904133518 86 0 1.0 2.0 0.00 0.00 0.00 75 1016.7
20260904133039 86 212 0.0 2.0 0.00 0.00 0.00 75 1016.6
20260904132518 86 145 0.0 1.0 0.00 0.00 0.00 75 1016.7
20260904132020 86 132 0.0 1.0 0.00 0.00 0.00 75 1016.6
20260904131540 86 0 0.0 1.0 0.00 0.00 0.00 76 1016.6
20260904131019 85 0 0.0 1.0 0.00 0.00 0.00 77 1016.7
20260904130523 85 132 0.0 1.0 0.00 0.00 0.00 78 1016.7
20260904130039 84 0 0.0 1.0 0.00 0.00 0.00 78 1016.6
20260904125516 84 0 0.0 1.0 0.00 0.00 0.00 79 1016.5
20260904125024 83 0 0.0 1.0 0.00 0.00 0.00 80 1016.6
20260904124541 83 0 0.0 0.0 0.00 0.00 0.00 81 1016.6
20260904124018 83 0 0.0 0.0 0.00 0.00 0.00 81 1016.5
20260904123520 82 0 0.0 0.0 0.00 0.00 0.00 82 1016.5
20260904123048 81 0 0.0 0.0 0.00 0.00 0.00 84 1016.4
20260904122519 80 0 0.0 0.0 0.00 0.00 0.00 85 1016.3
20260904122020 80 0 0.0 0.0 0.00 0.00 0.00 86 1016.3
20260904121536 79 0 0.0 0.0 0.00 0.00 0.00 87 1016.1
20260904121023 78 0 0.0 0.0 0.00 0.00 0.00 88 1016.2
20260904120520 78 0 0.0 0.0 0.00 0.00 0.00 88 1016.2
20260904120040 77 0 0.0 0.0 0.00 0.00 0.00 89 1016.1
20260904115519 77 0 0.0 0.0 0.00 0.00 0.00 90 1016.2
20260904115022 76 0 0.0 0.0 0.00 0.00 0.00 91 1016.0
20260904114538 75 0 0.0 0.0 0.00 0.00 0.00 92 1015.9
20260904114018 75 0 0.0 0.0 0.00 0.00 0.00 92 1015.9
20260904113518 75 0 0.0 0.0 0.00 0.00 0.00 92 1015.9
20260904113048 75 0 0.0 0.0 0.00 0.00 0.00 92 1015.9
20260904112517 75 0 0.0 0.0 0.00 0.00 0.00 92 1015.8
20260904112018 75 0 0.0 0.0 0.00 0.00 0.00 92 1015.9
20260904111539 75 0 0.0 0.0 0.00 0.00 0.00 92 1015.8
20260904111018 75 0 0.0 0.0 0.00 0.00 0.00 91 1015.7
20260904110520 75 0 0.0 0.0 0.00 0.00 0.00 91 1015.8
20260904110039 75 0 0.0 0.0 0.00 0.00 0.00 91 1015.7
20260904105518 75 0 0.0 0.0 0.00 0.00 0.00 91 1015.7
20260904105018 75 0 0.0 0.0 0.00 0.00 0.00 91 1015.6
20260904104537 75 0 0.0 0.0 0.00 0.00 0.00 91 1015.6
20260904104018 75 0 0.0 0.0 0.00 0.00 0.00 91 1015.4
20260904103520 75 0 0.0 0.0 0.00 0.00 0.00 91 1015.4
20260904103037 75 0 0.0 0.0 0.00 0.00 0.00 91 1015.4
20260904102522 76 0 0.0 0.0 0.00 0.00 0.00 91 1015.4
20260904102020 76 0 0.0 0.0 0.00 0.00 0.00 91 1015.4
20260904101537 76 0 0.0 0.0 0.00 0.00 0.00 91 1015.4
20260904101017 76 0 0.0 0.0 0.00 0.00 0.00 91 1015.4
20260904100517 76 0 0.0 0.0 0.00 0.00 0.00 91 1015.3
20260904100041 76 0 0.0 0.0 0.00 0.00 0.00 91 1015.4
20260904095520 76 0 0.0 0.0 0.00 0.00 0.00 91 1015.2
20260904095022 76 0 0.0 0.0 0.00 0.00 0.00 91 1015.2
20260904094540 75 0 0.0 0.0 0.00 0.00 0.00 91 1015.2
20260904094018 76 0 0.0 0.0 0.00 0.00 0.00 91 1015.2
20260904093520 76 0 0.0 0.0 0.00 0.00 0.00 91 1015.2
20260904093052 76 0 0.0 0.0 0.00 0.00 0.00 91 1015.3
20260904092519 76 0 0.0 0.0 0.00 0.00 0.00 91 1015.3
20260904092017 76 0 0.0 0.0 0.00 0.00 0.00 91 1015.3
20260904091537 76 0 0.0 0.0 0.00 0.00 0.00 91 1015.2
20260904091016 76 0 0.0 0.0 0.00 0.00 0.00 91 1015.1
20260904090521 76 0 0.0 0.0 0.00 0.00 0.00 91 1015.3
20260904090040 76 0 0.0 0.0 0.00 0.00 0.00 90 1015.3
20260904085520 76 0 0.0 0.0 0.00 0.00 0.00 90 1015.2
20260904085020 76 0 0.0 0.0 0.00 0.00 0.00 90 1015.2
20260904084537 76 0 0.0 0.0 0.00 0.00 0.00 89 1015.1
20260904084018 76 0 0.0 0.0 0.00 0.00 0.00 89 1015.2
20260904083521 76 0 0.0 0.0 0.00 0.00 0.00 89 1015.2
20260904083038 76 0 0.0 0.0 0.00 0.00 0.00 89 1015.2
20260904082518 76 0 0.0 0.0 0.00 0.00 0.00 89 1015.3
20260904082015 76 0 0.0 0.0 0.00 0.00 0.00 89 1015.2
20260904081540 77 0 0.0 0.0 0.00 0.00 0.00 89 1015.1
20260904081018 77 0 0.0 0.0 0.00 0.00 0.00 89 1015.1
20260904080521 77 0 0.0 0.0 0.00 0.00 0.00 89 1015.1
20260904080040 77 0 0.0 0.0 0.00 0.00 0.00 89 1015.1
20260904075518 77 0 0.0 0.0 0.00 0.00 0.00 89 1015.1
20260904075023 77 0 0.0 0.0 0.00 0.00 0.00 89 1015.1
20260904074539 77 0 0.0 0.0 0.00 0.00 0.00 88 1015.0
20260904074017 77 0 0.0 0.0 0.00 0.00 0.00 88 1015.1
20260904073516 77 0 0.0 0.0 0.00 0.00 0.00 87 1015.0
20260904073039 77 0 0.0 0.0 0.00 0.00 0.00 87 1015.0
20260904072517 78 0 0.0 0.0 0.00 0.00 0.00 87 1015.0
20260904072018 78 0 0.0 0.0 0.00 0.00 0.00 87 1015.1
20260904071539 78 0 0.0 0.0 0.00 0.00 0.00 86 1015.0
20260904071020 78 0 0.0 0.0 0.00 0.00 0.00 86 1015.1
20260904070523 78 0 0.0 0.0 0.00 0.00 0.00 86 1015.1
20260904070046 78 0 0.0 0.0 0.00 0.00 0.00 86 1015.1
20260904065519 78 0 0.0 0.0 0.00 0.00 0.00 86 1015.1
20260904065017 78 0 0.0 0.0 0.00 0.00 0.00 86 1015.2
20260904064544 79 0 0.0 0.0 0.00 0.00 0.00 85 1015.3
20260904064016 78 0 0.0 0.0 0.00 0.00 0.00 86 1015.3
20260904063521 78 0 0.0 0.0 0.00 0.00 0.00 86 1015.3
20260904063037 79 0 0.0 0.0 0.00 0.00 0.00 86 1015.3
20260904062519 79 0 0.0 0.0 0.00 0.00 0.00 86 1015.3
20260904062019 79 0 0.0 0.0 0.00 0.00 0.00 85 1015.2
20260904061549 79 0 0.0 0.0 0.00 0.00 0.00 85 1015.3
20260904061019 79 0 0.0 0.0 0.00 0.00 0.00 85 1015.5
20260904060520 79 0 0.0 0.0 0.00 0.00 0.00 84 1015.5
20260904060038 80 0 0.0 0.0 0.00 0.00 0.00 84 1015.6
20260904055519 80 0 0.0 0.0 0.00 0.00 0.00 83 1015.6
20260904055020 80 0 0.0 0.0 0.00 0.00 0.00 83 1015.5
20260904054537 80 0 0.0 0.0 0.00 0.00 0.00 83 1015.5
20260904054020 80 0 0.0 0.0 0.00 0.00 0.00 82 1015.6
20260904053523 80 0 0.0 0.0 0.00 0.00 0.00 83 1015.6
20260904053039 80 0 0.0 0.0 0.00 0.00 0.00 83 1015.6
20260904052516 80 0 0.0 0.0 0.00 0.00 0.00 83 1015.5
20260904052019 80 0 0.0 0.0 0.00 0.00 0.00 83 1015.6
20260904051546 80 0 0.0 0.0 0.00 0.00 0.00 82 1015.7
20260904051020 80 0 0.0 0.0 0.00 0.00 0.00 82 1015.7
20260904050517 81 0 0.0 0.0 0.00 0.00 0.00 81 1015.7
20260904050037 81 0 0.0 0.0 0.00 0.00 0.00 81 1015.7
20260904045521 81 0 0.0 0.0 0.00 0.00 0.00 80 1015.6
20260904045018 81 0 0.0 0.0 0.00 0.00 0.00 80 1015.6
20260904044537 81 0 0.0 0.0 0.00 0.00 0.00 80 1015.5
20260904044018 81 0 0.0 0.0 0.00 0.00 0.00 80 1015.6
20260904043520 81 0 0.0 0.0 0.00 0.00 0.00 80 1015.5
20260904043039 81 0 0.0 0.0 0.00 0.00 0.00 80 1015.5
20260904042517 81 0 0.0 0.0 0.00 0.00 0.00 80 1015.6
20260904042017 81 0 0.0 0.0 0.00 0.00 0.00 80 1015.5
20260904041544 81 0 0.0 0.0 0.00 0.00 0.00 81 1015.4
20260904041017 81 0 0.0 0.0 0.00 0.00 0.00 81 1015.4
20260904040523 81 0 0.0 0.0 0.00 0.00 0.00 82 1015.5
20260904040037 80 0 0.0 0.0 0.00 0.00 0.00 83 1015.5
20260904035519 81 0 0.0 0.0 0.00 0.00 0.00 84 1015.6
20260904035019 80 134 0.0 0.0 0.00 0.00 0.00 84 1015.5
20260904034549 81 0 0.0 0.0 0.00 0.00 0.00 84 1015.6
20260904034019 81 0 0.0 2.0 0.00 0.00 0.00 84 1015.6
20260904033517 81 0 0.0 2.0 0.00 0.00 0.00 84 1015.7
20260904033038 81 87 0.0 2.0 0.00 0.00 0.00 83 1015.8
20260904032518 81 0 0.0 0.0 0.00 0.00 0.00 83 1015.8
20260904032018 82 0 0.0 1.0 0.00 0.00 0.00 82 1015.8
20260904031542 82 0 0.0 1.0 0.00 0.00 0.00 81 1015.7
20260904031020 82 0 0.0 1.0 0.00 0.00 0.00 82 1015.8
20260904030518 82 0 0.0 1.0 0.00 0.00 0.00 81 1015.9
20260904030036 82 0 0.0 1.0 0.00 0.00 0.00 81 1015.9
20260904025517 82 117 0.0 1.0 0.00 0.00 0.00 81 1015.8
20260904025020 82 288 0.0 1.0 0.00 0.00 0.00 80 1015.9
20260904024538 82 288 0.0 1.0 0.00 0.00 0.00 80 1015.8
20260904024020 83 0 0.0 1.0 0.00 0.00 0.00 79 1015.8
20260904023518 83 0 0.0 1.0 0.00 0.00 0.00 78 1015.8
20260904023036 83 288 0.0 1.0 0.00 0.00 0.00 76 1015.8
20260904022520 84 0 0.0 1.0 0.00 0.00 0.00 75 1015.7
20260904022021 84 0 0.0 1.0 0.00 0.00 0.00 74 1015.8
20260904021537 84 0 0.0 1.0 0.00 0.00 0.00 74 1015.9
20260904021021 84 0 0.0 1.0 0.00 0.00 0.00 74 1015.8
20260904020517 84 0 0.0 0.0 0.00 0.00 0.00 74 1015.9
20260904020036 84 0 0.0 0.0 0.00 0.00 0.00 73 1015.8
20260904015522 84 0 0.0 0.0 0.00 0.00 0.00 72 1015.8
20260904015017 85 0 0.0 0.0 0.00 0.00 0.00 71 1015.8
20260904014538 85 0 0.0 0.0 0.00 0.00 0.00 71 1015.7
20260904014020 85 0 0.0 0.0 0.00 0.00 0.00 71 1015.7
20260904013518 85 0 0.0 0.0 0.00 0.00 0.00 70 1015.7
20260904013036 86 0 0.0 1.0 0.00 0.00 0.00 69 1015.6
20260904012519 86 0 0.0 1.0 0.00 0.00 0.00 69 1015.6
20260904012020 86 288 0.0 1.0 0.00 0.00 0.00 68 1015.6
20260904011558 86 0 0.0 1.0 0.00 0.00 0.00 69 1015.6
20260904011019 86 0 0.0 1.0 0.00 0.00 0.00 68 1015.5
20260904010520 86 0 0.0 1.0 0.00 0.00 0.00 68 1015.5
20260904010036 87 0 0.0 1.0 0.00 0.00 0.00 68 1015.5
20260904005520 87 0 0.0 1.0 0.00 0.00 0.00 66 1015.3
20260904005017 88 0 0.0 0.0 0.00 0.00 0.00 66 1015.1
20260904004537 88 0 0.0 0.0 0.00 0.00 0.00 65 1015.2
20260904004019 89 0 0.0 0.0 0.00 0.00 0.00 64 1015.0
20260904003525 90 0 0.0 0.0 0.00 0.00 0.00 63 1015.1
20260904003037 90 0 0.0 0.0 0.00 0.00 0.00 61 1015.0
20260904002519 91 0 0.0 0.0 0.00 0.00 0.00 60 1014.8
20260904002018 91 0 0.0 0.0 0.00 0.00 0.00 59 1014.9
20260904001535 91 0 0.0 0.0 0.00 0.00 0.00 58 1014.8
20260904001019 92 0 0.0 0.0 0.00 0.00 0.00 57 1014.7
20260904000520 93 0 0.0 1.0 0.00 0.00 0.00 57 1014.8
20260904000043 93 0 0.0 1.0 0.00 0.00 0.00 55 1014.7
20260903235520 94 0 0.0 1.0 0.00 0.00 0.00 55 1014.7
20260903235017 94 0 0.0 1.0 0.00 0.00 0.00 54 1014.6
20260903234544 95 0 0.0 1.0 0.00 0.00 0.00 52 1014.6
20260903234020 95 0 0.0 1.0 0.00 0.00 0.00 52 1014.6
20260903233521 95 288 0.0 1.0 0.00 0.00 0.00 52 1014.5
20260903233036 96 288 0.0 2.0 0.00 0.00 0.00 52 1014.5
20260903232517 96 0 0.0 2.0 0.00 0.00 0.00 51 1014.5
20260903232016 96 288 0.0 2.0 0.00 0.00 0.00 51 1014.5
20260903231538 96 288 1.0 2.0 0.00 0.00 0.00 51 1014.5
20260903231021 96 266 0.0 3.0 0.00 0.00 0.00 51 1014.4
20260903230518 96 283 0.0 3.0 0.00 0.00 0.00 51 1014.5
20260903230042 96 269 1.0 3.0 0.00 0.00 0.00 50 1014.5
20260903225520 97 354 0.0 3.0 0.00 0.00 0.00 50 1014.4
20260903225020 97 276 1.0 3.0 0.00 0.00 0.00 50 1014.5
20260903224535 97 274 0.0 3.0 0.00 0.00 0.00 50 1014.4
20260903224016 97 4 0.0 7.0 0.00 0.00 0.00 50 1014.5
20260903223517 97 285 1.0 7.0 0.00 0.00 0.00 50 1014.5
20260903223036 98 278 1.0 5.0 0.00 0.00 0.00 51 1014.5
20260903222518 98 271 1.0 5.0 0.00 0.00 0.00 50 1014.3
20260903222018 97 0 0.0 5.0 0.00 0.00 0.00 49 1014.5
20260903221537 97 186 2.0 7.0 0.00 0.00 0.00 50 1014.4
20260903221019 97 248 3.0 7.0 0.00 0.00 0.00 49 1014.3
20260903220517 97 284 1.0 5.0 0.00 0.00 0.00 50 1014.4
20260903220039 97 265 1.0 7.0 0.00 0.00 0.00 50 1014.4
20260903215518 96 283 2.0 7.0 0.00 0.00 0.00 51 1014.5
20260903215018 97 213 3.0 8.0 0.00 0.00 0.00 49 1014.4
20260903214542 97 284 3.0 9.0 0.00 0.00 0.00 49 1014.4
20260903214019 97 279 4.0 9.0 0.00 0.00 0.00 49 1014.4